When you browse on this site, cookies collect data to enhance your experience and personalize the content and advertising you see.
Visit our Privacy Policy to learn more. By continuing to use the site, you agree to this use of cookies and data.
  • în România
  • Lista ţărilor
  • Pe 7 zile
  • Temperatura apei
  • Meteo pe hartă
  • Widget-uri
  • user-avatar
    Intrare

    Meteo pe oră la Canillo

    Astăzi, 1 Iunie, Luni

    Timp Temperatura Precipitaţii Vânt Presiune Umiditate
    00:00 +10°C° 0 mm 1 m/s 617 mmHg 97%
    01:00 +10°C° 0.1 mm 1 m/s 617 mmHg 95%
    02:00 +10°C° 0.1 mm 1 m/s 617 mmHg 93%
    03:00 +9°C° 0.1 mm 1 m/s 617 mmHg 91%
    04:00 +10°C° 0.1 mm 1 m/s 617 mmHg 90%
    05:00 +10°C° 0.1 mm 0 m/s 618 mmHg 88%
    06:00 +12°C° 0 mm 1 m/s 618 mmHg 86%
    07:00 +13°C° 0.5 mm 1 m/s 619 mmHg 82%
    08:00 +14°C° 0.5 mm 1 m/s 620 mmHg 79%
    09:00 +15°C° 0.5 mm 1 m/s 620 mmHg 75%
    10:00 +15°C° 1.3 mm 1 m/s 620 mmHg 77%
    11:00 +15°C° 1.3 mm 1 m/s 620 mmHg 78%
    12:00 +15°C° 0 mm 1 m/s 620 mmHg 81%
    13:00 +14°C° 1.5 mm 1 m/s 620 mmHg 84%
    14:00 +13°C° 1.5 mm 1 m/s 619 mmHg 87%
    15:00 +12°C° 1.5 mm 1 m/s 619 mmHg 91%
    16:00 +12°C° 1.6 mm 1 m/s 619 mmHg 92%
    17:00 +11°C° 1.6 mm 1 m/s 618 mmHg 93%
    18:00 +10°C° 1.6 mm 1 m/s 618 mmHg 94%
    19:00 +10°C° 0.3 mm 1 m/s 618 mmHg 93%
    20:00 +9°C° 0.3 mm 1 m/s 618 mmHg 92%
    21:00 +8°C° 0.3 mm 0 m/s 619 mmHg 91%
    22:00 +9°C° 0 mm 1 m/s 618 mmHg 89%
    23:00 +9°C° 0 mm 1 m/s 618 mmHg 88%

    Mâine, 2 Iunie, Marţi

    Timp Temperatura Precipitaţii Vânt Presiune Umiditate
    00:00 +8°C° 0 mm 1 m/s 618 mmHg 87%
    01:00 +8°C° 0 mm 1 m/s 618 mmHg 85%
    02:00 +8°C° 0 mm 1 m/s 618 mmHg 84%
    03:00 +8°C° 0 mm 1 m/s 617 mmHg 82%
    04:00 +9°C° 0 mm 1 m/s 618 mmHg 81%
    05:00 +10°C° 0 mm 1 m/s 618 mmHg 79%
    06:00 +11°C° 0 mm 1 m/s 619 mmHg 78%
    07:00 +13°C° 0 mm 1 m/s 620 mmHg 70%
    08:00 +15°C° 0 mm 1 m/s 621 mmHg 62%
    09:00 +18°C° 0 mm 1 m/s 622 mmHg 54%
    10:00 +18°C° 0.1 mm 1 m/s 621 mmHg 53%
    11:00 +18°C° 0.1 mm 2 m/s 621 mmHg 53%
    12:00 +18°C° 0.1 mm 2 m/s 621 mmHg 52%
    13:00 +17°C° 0.5 mm 2 m/s 621 mmHg 59%
    14:00 +17°C° 0.5 mm 2 m/s 620 mmHg 66%
    15:00 +16°C° 0.5 mm 1 m/s 620 mmHg 72%
    16:00 +15°C° 0.8 mm 1 m/s 619 mmHg 77%
    17:00 +14°C° 0.8 mm 1 m/s 619 mmHg 81%
    18:00 +13°C° 0.8 mm 0 m/s 618 mmHg 86%
    19:00 +12°C° 0.1 mm 0 m/s 618 mmHg 88%
    20:00 +11°C° 0.1 mm 1 m/s 617 mmHg 90%
    21:00 +10°C° 0.1 mm 1 m/s 617 mmHg 92%
    22:00 +10°C° 0 mm 1 m/s 617 mmHg 92%
    23:00 +10°C° 0 mm 1 m/s 616 mmHg 91%

    Poimâine, 3 Iunie, Miercuri

    Timp Temperatura Precipitaţii Vânt Presiune Umiditate
    00:00 +9°C° 0 mm 1 m/s 616 mmHg 90%
    01:00 +9°C° 0.1 mm 1 m/s 616 mmHg 90%
    02:00 +9°C° 0.1 mm 1 m/s 615 mmHg 90%
    03:00 +9°C° 0.1 mm 1 m/s 615 mmHg 90%
    04:00 +10°C° 0 mm 1 m/s 615 mmHg 89%
    05:00 +11°C° 0 mm 1 m/s 615 mmHg 87%
    06:00 +12°C° 0 mm 1 m/s 615 mmHg 85%
    07:00 +13°C° 0.6 mm 1 m/s 616 mmHg 82%
    08:00 +14°C° 0.6 mm 1 m/s 616 mmHg 79%
    09:00 +15°C° 0.6 mm 1 m/s 617 mmHg 76%
    10:00 +15°C° 1.5 mm 1 m/s 616 mmHg 78%
    11:00 +15°C° 1.5 mm 1 m/s 616 mmHg 79%
    12:00 +15°C° 1.5 mm 1 m/s 615 mmHg 81%
    13:00 +14°C° 1.3 mm 1 m/s 615 mmHg 83%
    14:00 +14°C° 1.3 mm 1 m/s 614 mmHg 85%
    15:00 +13°C° 1.3 mm 1 m/s 614 mmHg 88%
    16:00 +13°C° 0.8 mm 1 m/s 613 mmHg 89%
    17:00 +13°C° 0.8 mm 1 m/s 613 mmHg 90%
    18:00 +11°C° 0.8 mm 0 m/s 613 mmHg 91%
    19:00 +11°C° 1.1 mm 0 m/s 613 mmHg 92%
    20:00 +10°C° 1.1 mm 0 m/s 613 mmHg 92%
    21:00 +9°C° 1.1 mm 0 m/s 612 mmHg 92%
    22:00 +10°C° 2.2 mm 1 m/s 612 mmHg 94%
    23:00 +10°C° 2.2 mm 1 m/s 612 mmHg 96%

    4 Iunie, Joi

    Timp Temperatura Precipitaţii Vânt Presiune Umiditate
    00:00 +9°C° 2.2 mm 1 m/s 611 mmHg 98%
    01:00 +9°C° 2.6 mm 1 m/s 611 mmHg 98%
    02:00 +8°C° 2.6 mm 1 m/s 610 mmHg 98%
    03:00 +8°C° 2.6 mm 1 m/s 610 mmHg 98%
    04:00 +8°C° 1.9 mm 1 m/s 610 mmHg 98%
    05:00 +7°C° 1.9 mm 1 m/s 609 mmHg 98%
    06:00 +7°C° 1.9 mm 1 m/s 609 mmHg 97%
    07:00 +7°C° 0.9 mm 1 m/s 609 mmHg 96%
    08:00 +8°C° 0.9 mm 1 m/s 610 mmHg 94%
    09:00 +8°C° 0.9 mm 1 m/s 610 mmHg 93%
    10:00 +8°C° 0.7 mm 1 m/s 610 mmHg 91%
    11:00 +7°C° 0.7 mm 2 m/s 610 mmHg 88%
    12:00 +7°C° 0.7 mm 2 m/s 610 mmHg 86%
    13:00 +7°C° 1.2 mm 2 m/s 609 mmHg 88%
    14:00 +6°C° 1.2 mm 2 m/s 609 mmHg 91%
    15:00 +6°C° 1.2 mm 2 m/s 609 mmHg 93%
    16:00 +6°C° 0.5 mm 2 m/s 609 mmHg 90%
    17:00 +6°C° 0.5 mm 2 m/s 609 mmHg 87%
    18:00 +6°C° 0.5 mm 2 m/s 609 mmHg 84%
    19:00 +5°C° 0.1 mm 2 m/s 610 mmHg 87%
    20:00 +4°C° 0.1 mm 2 m/s 610 mmHg 91%
    21:00 +4°C° 0.1 mm 2 m/s 610 mmHg 94%
    22:00 +3°C° 0 mm 2 m/s 610 mmHg 93%
    23:00 +3°C° 0 mm 2 m/s 610 mmHg 93%

    5 Iunie, Vineri

    Timp Temperatura Precipitaţii Vânt Presiune Umiditate
    00:00 +3°C° 0 mm 2 m/s 610 mmHg 92%
    01:00 +3°C° 0 mm 2 m/s 610 mmHg 92%
    02:00 +3°C° 0 mm 2 m/s 610 mmHg 92%
    03:00 +3°C° 0 mm 2 m/s 610 mmHg 91%
    04:00 +3°C° 0 mm 2 m/s 611 mmHg 90%
    05:00 +4°C° 0 mm 2 m/s 611 mmHg 90%
    06:00 +4°C° 0 mm 2 m/s 611 mmHg 89%
    07:00 +6°C° 0 mm 2 m/s 612 mmHg 81%
    08:00 +7°C° 0 mm 2 m/s 613 mmHg 73%
    09:00 +9°C° 0 mm 2 m/s 614 mmHg 65%
    10:00 +10°C° 0 mm 2 m/s 614 mmHg 62%
    11:00 +12°C° 0 mm 2 m/s 615 mmHg 59%
    12:00 +13°C° 0 mm 2 m/s 615 mmHg 57%
    13:00 +13°C° 0 mm 2 m/s 615 mmHg 58%
    14:00 +12°C° 0 mm 3 m/s 615 mmHg 60%
    15:00 +12°C° 0 mm 3 m/s 615 mmHg 61%
    16:00 +12°C° 0 mm 2 m/s 615 mmHg 67%
    17:00 +10°C° 0 mm 2 m/s 615 mmHg 73%
    18:00 +9°C° 0 mm 2 m/s 615 mmHg 79%
    19:00 +9°C° 0 mm 1 m/s 615 mmHg 83%
    20:00 +8°C° 0 mm 1 m/s 615 mmHg 87%
    21:00 +7°C° 0 mm 1 m/s 615 mmHg 91%
    22:00 +7°C° 0 mm 1 m/s 615 mmHg 92%
    23:00 +6°C° 0 mm 1 m/s 615 mmHg 93%

    6 Iunie, Sâmbătă

    Timp Temperatura Precipitaţii Vânt Presiune Umiditate
    00:00 +5°C° 0 mm 0 m/s 615 mmHg 94%
    01:00 +6°C° 0 mm 1 m/s 615 mmHg 95%
    02:00 +6°C° 0 mm 1 m/s 615 mmHg 95%
    03:00 +6°C° 0 mm 1 m/s 615 mmHg 95%
    04:00 +7°C° 0 mm 1 m/s 615 mmHg 92%
    05:00 +8°C° 0 mm 1 m/s 615 mmHg 89%
    06:00 +8°C° 0 mm 0 m/s 616 mmHg 86%
    07:00 +11°C° 0 mm 1 m/s 617 mmHg 77%
    08:00 +13°C° 0 mm 1 m/s 617 mmHg 68%
    09:00 +15°C° 0 mm 2 m/s 618 mmHg 59%
    10:00 +16°C° 0 mm 2 m/s 618 mmHg 56%
    11:00 +17°C° 0 mm 2 m/s 618 mmHg 52%
    12:00 +18°C° 0 mm 2 m/s 618 mmHg 49%
    13:00 +18°C° 0.1 mm 2 m/s 618 mmHg 51%
    14:00 +17°C° 0.1 mm 3 m/s 617 mmHg 52%
    15:00 +17°C° 0.1 mm 3 m/s 617 mmHg 54%
    16:00 +16°C° 1 mm 2 m/s 616 mmHg 65%
    17:00 +14°C° 1 mm 2 m/s 615 mmHg 77%
    18:00 +12°C° 1 mm 1 m/s 614 mmHg 88%
    19:00 +11°C° 1.3 mm 1 m/s 614 mmHg 91%
    20:00 +10°C° 1.3 mm 1 m/s 614 mmHg 93%
    21:00 +9°C° 1.3 mm 1 m/s 614 mmHg 95%
    22:00 +9°C° 2.4 mm 1 m/s 614 mmHg 95%
    23:00 +9°C° 2.4 mm 1 m/s 614 mmHg 95%
    Arată mai mult